| time (UTC) | temp C | wind direction | speed KPH | gust KPH | rain 1hr cm | rain 24hr cm | rain mn cm | humidity % | barometer mb |
| 20260504100602 | 1 | 0 | 0.0 | 0.0 | 0.00 | 0.00 | 0.00 | 92 | 1013.5 |
| 20260504100103 | 1 | 0 | 0.0 | 0.0 | 0.00 | 0.00 | 0.00 | 92 | 1013.5 |
| 20260504081608 | 1 | 0 | 0.0 | 0.0 | 0.00 | 0.00 | 0.00 | 92 | 1013.9 |
| 20260504081058 | 1 | 0 | 0.0 | 0.0 | 0.00 | 0.00 | 0.00 | 92 | 1013.8 |
| 20260504080603 | 1 | 0 | 0.0 | 0.0 | 0.00 | 0.00 | 0.00 | 92 | 1013.9 |
| 20260504080116 | 1 | 0 | 0.0 | 0.0 | 0.00 | 0.00 | 0.00 | 92 | 1013.8 |
| 20260504050559 | 3 | 0 | 0.0 | 0.0 | 0.00 | 0.00 | 0.00 | 85 | 1013.9 |
| 20260504050107 | 3 | 0 | 0.0 | 0.0 | 0.00 | 0.00 | 0.00 | 85 | 1013.9 |
| 20260504045602 | 3 | 0 | 0.0 | 0.0 | 0.00 | 0.00 | 0.00 | 84 | 1014.0 |
| 20260504045102 | 3 | 0 | 0.0 | 0.0 | 0.00 | 0.00 | 0.00 | 84 | 1014.0 |
| 20260504044603 | 3 | 0 | 0.0 | 0.0 | 0.00 | 0.00 | 0.00 | 84 | 1014.1 |
| 20260504044058 | 3 | 0 | 0.0 | 0.0 | 0.00 | 0.00 | 0.00 | 83 | 1014.0 |
| 20260504043558 | 3 | 0 | 0.0 | 0.0 | 0.00 | 0.00 | 0.00 | 83 | 1014.0 |
| 20260504043102 | 3 | 0 | 0.0 | 0.0 | 0.00 | 0.00 | 0.00 | 83 | 1014.0 |
| 20260504042600 | 3 | 0 | 0.0 | 0.0 | 0.00 | 0.00 | 0.00 | 82 | 1014.1 |
| 20260504042101 | 3 | 0 | 0.0 | 0.0 | 0.00 | 0.00 | 0.00 | 81 | 1014.0 |
| 20260504041602 | 3 | 0 | 0.0 | 0.0 | 0.00 | 0.00 | 0.00 | 81 | 1014.0 |
| 20260504041101 | 3 | 0 | 0.0 | 0.0 | 0.00 | 0.00 | 0.00 | 81 | 1013.9 |
| 20260504040558 | 3 | 0 | 0.0 | 0.0 | 0.00 | 0.00 | 0.00 | 79 | 1013.8 |
| 20260504035558 | 4 | 0 | 0.0 | 0.0 | 0.00 | 0.00 | 0.00 | 78 | 1013.7 |
| 20260504035057 | 4 | 0 | 0.0 | 0.0 | 0.00 | 0.00 | 0.00 | 78 | 1013.8 |
| 20260504034600 | 4 | 0 | 0.0 | 0.0 | 0.00 | 0.00 | 0.00 | 77 | 1013.8 |
| 20260504034104 | 4 | 0 | 0.0 | 0.0 | 0.00 | 0.00 | 0.00 | 78 | 1013.8 |
| 20260504033601 | 4 | 0 | 0.0 | 0.0 | 0.00 | 0.00 | 0.00 | 76 | 1013.7 |
| 20260504033101 | 4 | 0 | 0.0 | 0.0 | 0.00 | 0.00 | 0.00 | 76 | 1013.7 |
| 20260504032601 | 5 | 0 | 0.0 | 0.0 | 0.00 | 0.00 | 0.00 | 75 | 1013.8 |
| 20260504032103 | 5 | 0 | 0.0 | 0.0 | 0.00 | 0.00 | 0.00 | 75 | 1013.8 |
| 20260504031600 | 5 | 0 | 0.0 | 0.0 | 0.00 | 0.00 | 0.00 | 74 | 1013.7 |
| 20260504031058 | 5 | 0 | 0.0 | 0.0 | 0.00 | 0.00 | 0.00 | 73 | 1013.6 |
| 20260504030558 | 5 | 0 | 0.0 | 0.0 | 0.00 | 0.00 | 0.00 | 73 | 1013.5 |
| 20260504030058 | 5 | 0 | 0.0 | 0.0 | 0.00 | 0.00 | 0.00 | 71 | 1013.5 |
| 20260504025558 | 5 | 0 | 0.0 | 0.0 | 0.00 | 0.00 | 0.00 | 69 | 1013.6 |
| 20260504025101 | 5 | 0 | 0.0 | 0.0 | 0.00 | 0.00 | 0.00 | 69 | 1013.6 |
| 20260504024616 | 6 | 0 | 0.0 | 0.0 | 0.00 | 0.00 | 0.00 | 69 | 1013.5 |
| 20260504024057 | 6 | 0 | 0.0 | 0.0 | 0.00 | 0.00 | 0.00 | 69 | 1013.5 |
| 20260504023558 | 6 | 0 | 0.0 | 0.0 | 0.00 | 0.00 | 0.00 | 69 | 1013.4 |
| 20260504023101 | 6 | 0 | 0.0 | 0.0 | 0.00 | 0.00 | 0.00 | 68 | 1013.5 |
| 20260504022602 | 6 | 0 | 0.0 | 0.0 | 0.00 | 0.00 | 0.00 | 68 | 1013.5 |
| 20260504022058 | 6 | 0 | 0.0 | 0.0 | 0.00 | 0.00 | 0.00 | 68 | 1013.6 |
| 20260504021558 | 6 | 0 | 0.0 | 0.0 | 0.00 | 0.00 | 0.00 | 66 | 1013.5 |
| 20260504021100 | 6 | 0 | 0.0 | 0.0 | 0.00 | 0.00 | 0.00 | 65 | 1013.4 |
| 20260504020558 | 7 | 0 | 0.0 | 6.4 | 0.00 | 0.00 | 0.00 | 65 | 1013.3 |
| 20260504015601 | -17 | 0.0 | 0.0 | 0.00 | 0.00 | 0.00 | 1013.2 | ||
| 20260503234602 | 13 | 0 | 1.6 | 4.8 | 0.00 | 0.00 | 0.00 | 39 | 1012.2 |
| 20260503234101 | 13 | 0 | 1.6 | 9.7 | 0.00 | 0.00 | 0.00 | 39 | 1012.0 |
| 20260503233558 | 13 | 0 | 1.6 | 9.7 | 0.00 | 0.00 | 0.00 | 38 | 1012.0 |
| 20260503233058 | 13 | 53 | 3.2 | 9.7 | 0.00 | 0.00 | 0.00 | 38 | 1012.0 |
| 20260503232557 | 14 | 302 | 1.6 | 11.3 | 0.00 | 0.00 | 0.00 | 38 | 1012.0 |
| 20260503232057 | 14 | 249 | 1.6 | 12.9 | 0.00 | 0.00 | 0.00 | 37 | 1012.0 |
| 20260503231559 | 14 | 0 | 4.8 | 17.7 | 0.00 | 0.00 | 0.00 | 37 | 1011.9 |
| 20260503231059 | 15 | 295 | 1.6 | 17.7 | 0.00 | 0.00 | 0.00 | 36 | 1011.9 |
| 20260503230602 | 15 | 320 | 3.2 | 14.5 | 0.00 | 0.00 | 0.00 | 36 | 1012.0 |
| 20260503230058 | 15 | 293 | 1.6 | 11.3 | 0.00 | 0.00 | 0.00 | 36 | 1012.0 |
| 20260503225558 | 15 | 358 | 4.8 | 11.3 | 0.00 | 0.00 | 0.00 | 35 | 1011.9 |
| 20260503225058 | 15 | 0 | 3.2 | 12.9 | 0.00 | 0.00 | 0.00 | 34 | 1011.9 |
| 20260503224557 | 15 | 288 | 3.2 | 12.9 | 0.00 | 0.00 | 0.00 | 33 | 1011.9 |
| 20260503224058 | 16 | 310 | 1.6 | 8.0 | 0.00 | 0.00 | 0.00 | 34 | 1011.9 |
| 20260503223558 | 16 | 235 | 1.6 | 8.0 | 0.00 | 0.00 | 0.00 | 33 | 1011.8 |
| 20260503223056 | 15 | 276 | 1.6 | 9.7 | 0.00 | 0.00 | 0.00 | 34 | 1011.9 |
| 20260503222557 | 15 | 0 | 3.2 | 16.1 | 0.00 | 0.00 | 0.00 | 35 | 1011.9 |
| 20260503222057 | 15 | 0 | 6.4 | 16.1 | 0.00 | 0.00 | 0.00 | 34 | 1011.9 |
| 20260503221600 | 15 | 303 | 4.8 | 14.5 | 0.00 | 0.00 | 0.00 | 33 | 1011.7 |
| 20260503221058 | 15 | 315 | 3.2 | 14.5 | 0.00 | 0.00 | 0.00 | 35 | 1011.8 |
| 20260503220558 | 15 | 311 | 3.2 | 14.5 | 0.00 | 0.00 | 0.00 | 35 | 1011.8 |
| 20260503220058 | 15 | 271 | 4.8 | 14.5 | 0.00 | 0.00 | 0.00 | 34 | 1011.8 |
| 20260503215559 | 15 | 254 | 4.8 | 12.9 | 0.00 | 0.00 | 0.00 | 35 | 1011.9 |
| 20260503215057 | 15 | 6 | 3.2 | 12.9 | 0.00 | 0.00 | 0.00 | 34 | 1011.9 |
| 20260503214557 | 15 | 13 | 1.6 | 11.3 | 0.00 | 0.00 | 0.00 | 35 | 1011.8 |
| 20260503214057 | 15 | 297 | 3.2 | 12.9 | 0.00 | 0.00 | 0.00 | 35 | 1011.8 |
| 20260503213557 | 15 | 276 | 3.2 | 14.5 | 0.00 | 0.00 | 0.00 | 34 | 1011.8 |
| 20260503213105 | 15 | 0 | 3.2 | 17.7 | 0.00 | 0.00 | 0.00 | 34 | 1011.7 |
| 20260503212602 | 16 | 314 | 3.2 | 17.7 | 0.00 | 0.00 | 0.00 | 33 | 1011.8 |
| 20260503212101 | 16 | 355 | 4.8 | 20.9 | 0.00 | 0.00 | 0.00 | 33 | 1011.6 |
| 20260503211620 | 16 | 0 | 6.4 | 20.9 | 0.00 | 0.00 | 0.00 | 33 | 1011.6 |
| 20260503211058 | 15 | 13 | 1.6 | 11.3 | 0.00 | 0.00 | 0.00 | 33 | 1011.6 |
| 20260503210558 | 15 | 316 | 3.2 | 16.1 | 0.00 | 0.00 | 0.00 | 33 | 1011.7 |
| 20260503205558 | 16 | 315 | 4.8 | 16.1 | 0.00 | 0.00 | 0.00 | 32 | 1011.6 |
| 20260503205101 | 16 | 32 | 1.6 | 11.3 | 0.00 | 0.00 | 0.00 | 31 | 1011.6 |
| 20260503204600 | 16 | 352 | 3.2 | 20.9 | 0.00 | 0.00 | 0.00 | 34 | 1011.5 |
| 20260503204057 | 16 | 293 | 4.8 | 20.9 | 0.00 | 0.00 | 0.00 | 34 | 1011.6 |
| 20260503203557 | 16 | 276 | 3.2 | 11.3 | 0.00 | 0.00 | 0.00 | 34 | 1011.8 |
| 20260503203114 | 16 | 27 | 1.6 | 9.7 | 0.00 | 0.00 | 0.00 | 35 | 1011.6 |
| 20260503202602 | 15 | 349 | 3.2 | 9.7 | 0.00 | 0.00 | 0.00 | 34 | 1011.9 |
| 20260503202101 | 15 | 271 | 4.8 | 9.7 | 0.00 | 0.00 | 0.00 | 32 | 1011.9 |
| 20260503201600 | 16 | 308 | 3.2 | 12.9 | 0.00 | 0.00 | 0.00 | 35 | 1011.7 |
| 20260503201058 | 16 | 291 | 3.2 | 12.9 | 0.00 | 0.00 | 0.00 | 34 | 1011.8 |
| 20260503200603 | 16 | 271 | 3.2 | 12.9 | 0.00 | 0.00 | 0.00 | 33 | 1011.8 |
| 20260503200101 | 16 | 323 | 3.2 | 11.3 | 0.00 | 0.00 | 0.00 | 34 | 1011.9 |
| 20260503195603 | 15 | 38 | 3.2 | 16.1 | 0.00 | 0.00 | 0.00 | 35 | 1012.0 |
| 20260503195101 | 15 | 269 | 3.2 | 16.1 | 0.00 | 0.00 | 0.00 | 34 | 1012.0 |
| 20260503194601 | 15 | 307 | 4.8 | 14.5 | 0.00 | 0.00 | 0.00 | 34 | 1012.1 |
| 20260503194101 | 15 | 308 | 6.4 | 16.1 | 0.00 | 0.00 | 0.00 | 32 | 1012.2 |
| 20260503193558 | 15 | 311 | 3.2 | 16.1 | 0.00 | 0.00 | 0.00 | 32 | 1012.3 |
| 20260503193109 | 15 | 335 | 4.8 | 17.7 | 0.00 | 0.00 | 0.00 | 33 | 1012.3 |
| 20260503192600 | 15 | 289 | 8.0 | 17.7 | 0.00 | 0.00 | 0.00 | 33 | 1012.4 |
| 20260503192058 | 15 | 255 | 6.4 | 17.7 | 0.00 | 0.00 | 0.00 | 33 | 1012.4 |
| 20260503191604 | 15 | 20 | 6.4 | 17.7 | 0.00 | 0.00 | 0.00 | 32 | 1012.6 |
| 20260503191102 | 15 | 318 | 4.8 | 16.1 | 0.00 | 0.00 | 0.00 | 34 | 1012.6 |
| 20260503190557 | 15 | 300 | 3.2 | 16.1 | 0.00 | 0.00 | 0.00 | 33 | 1012.7 |
| 20260503185602 | 15 | 0 | 1.6 | 12.9 | 0.00 | 0.00 | 0.00 | 34 | 1012.8 |
| 20260503185100 | 14 | 5 | 4.8 | 12.9 | 0.00 | 0.00 | 0.00 | 33 | 1012.9 |
| 20260503184559 | 14 | 277 | 6.4 | 12.9 | 0.00 | 0.00 | 0.00 | 33 | 1013.0 |
| 20260503184102 | 14 | 274 | 4.8 | 17.7 | 0.00 | 0.00 | 0.00 | 34 | 1013.1 |
| 20260503183601 | 14 | 247 | 4.8 | 20.9 | 0.00 | 0.00 | 0.00 | 33 | 1013.1 |
| 20260503183101 | 14 | 256 | 6.4 | 20.9 | 0.00 | 0.00 | 0.00 | 33 | 1013.2 |
| 20260503182602 | 14 | 238 | 3.2 | 14.5 | 0.00 | 0.00 | 0.00 | 34 | 1013.3 |
| 20260503182101 | 14 | 21 | 4.8 | 14.5 | 0.00 | 0.00 | 0.00 | 33 | 1013.3 |
| 20260503181605 | 14 | 224 | 1.6 | 20.9 | 0.00 | 0.00 | 0.00 | 34 | 1013.2 |
| 20260503181100 | 14 | 278 | 4.8 | 20.9 | 0.00 | 0.00 | 0.00 | 37 | 1013.3 |
| 20260503180558 | 13 | 326 | 3.2 | 16.1 | 0.00 | 0.00 | 0.00 | 37 | 1013.4 |
| 20260503180117 | 13 | 308 | 4.8 | 16.1 | 0.00 | 0.00 | 0.00 | 36 | 1013.4 |
| 20260503175558 | 13 | 322 | 4.8 | 14.5 | 0.00 | 0.00 | 0.00 | 35 | 1013.5 |
| 20260503175058 | 13 | 312 | 4.8 | 17.7 | 0.00 | 0.00 | 0.00 | 38 | 1013.5 |
| 20260503174600 | 13 | 20 | 4.8 | 17.7 | 0.00 | 0.00 | 0.00 | 33 | 1013.5 |
| 20260503174058 | 13 | 281 | 6.4 | 17.7 | 0.00 | 0.00 | 0.00 | 35 | 1013.7 |
| 20260503173558 | 13 | 291 | 3.2 | 14.5 | 0.00 | 0.00 | 0.00 | 35 | 1013.7 |
| 20260503173101 | 13 | 46 | 1.6 | 6.4 | 0.00 | 0.00 | 0.00 | 38 | 1013.8 |
| 20260503172558 | 12 | 292 | 1.6 | 12.9 | 0.00 | 0.00 | 0.00 | 40 | 1013.9 |
| 20260503172057 | 12 | 308 | 3.2 | 12.9 | 0.00 | 0.00 | 0.00 | 39 | 1014.0 |
| 20260503171600 | 12 | 332 | 3.2 | 16.1 | 0.00 | 0.00 | 0.00 | 36 | 1014.1 |
| 20260503171057 | 12 | 264 | 4.8 | 22.5 | 0.00 | 0.00 | 0.00 | 36 | 1014.1 |
| 20260503170558 | 12 | 259 | 4.8 | 22.5 | 0.00 | 0.00 | 0.00 | 39 | 1014.2 |
| 20260503160110 | 11 | 321 | 4.8 | 11.3 | 0.00 | 0.00 | 0.00 | 40 | 1014.5 |
| 20260503150558 | 10 | 302 | 4.8 | 20.9 | 0.00 | 0.00 | 0.00 | 38 | 1014.8 |
| 20260503131057 | 8 | 3 | 1.6 | 11.3 | 0.00 | 0.00 | 0.00 | 58 | 1015.4 |
| 20260503130559 | 8 | 295 | 3.2 | 11.3 | 0.00 | 0.00 | 0.00 | 56 | 1015.4 |
| 20260503130104 | 8 | 288 | 1.6 | 11.3 | 0.00 | 0.00 | 0.00 | 58 | 1015.4 |
| 20260503110558 | 3 | 0 | 0.0 | 3.2 | 0.00 | 0.00 | 0.00 | 73 | 1015.0 |